When you browse on this site, cookies collect data to enhance your experience and personalize the content and advertising you see.
Visit our Privacy Policy to learn more. By continuing to use the site, you agree to this use of cookies and data.
  • In France
  • List of Countries
  • For 7 days
  • Water Temperature
  • Weather Map
  • Weather Widgets
  • user-avatar
    Login

    Hourly Weather Wangqing

    Today, 22 September, Sunday

    Time Temperature Precipitation Wind Pressure Humidity
    00:00 +9°C° 0 mm 1 mps 742 mmHg 89%
    01:00 +9°C° 0 mm 1 mps 742 mmHg 90%
    02:00 +8°C° 0 mm 1 mps 742 mmHg 91%
    03:00 +8°C° 0 mm 1 mps 742 mmHg 90%
    04:00 +7°C° 0 mm 1 mps 742 mmHg 91%
    05:00 +7°C° 0 mm 1 mps 742 mmHg 92%
    06:00 +7°C° 0 mm 1 mps 742 mmHg 93%
    07:00 +10°C° 0 mm 1 mps 743 mmHg 84%
    08:00 +11°C° 0 mm 0 mps 743 mmHg 74%
    09:00 +15°C° 0 mm 0 mps 743 mmHg 61%
    10:00 +18°C° 0 mm 1 mps 743 mmHg 54%
    11:00 +20°C° 0 mm 1 mps 742 mmHg 46%
    12:00 +22°C° 0 mm 1 mps 742 mmHg 39%
    13:00 +22°C° 0 mm 1 mps 742 mmHg 39%
    14:00 +22°C° 0 mm 1 mps 741 mmHg 40%
    15:00 +22°C° 0 mm 1 mps 741 mmHg 40%
    16:00 +20°C° 0 mm 1 mps 740 mmHg 48%
    17:00 +18°C° 0 mm 1 mps 740 mmHg 57%
    18:00 +16°C° 0 mm 1 mps 740 mmHg 66%
    19:00 +14°C° 0 mm 1 mps 740 mmHg 69%
    20:00 +13°C° 0 mm 1 mps 740 mmHg 73%
    21:00 +12°C° 0 mm 1 mps 740 mmHg 76%
    22:00 +11°C° 0 mm 1 mps 740 mmHg 80%
    23:00 +11°C° 0 mm 1 mps 740 mmHg 83%

    Tomorrow, 23 September, Monday

    Time Temperature Precipitation Wind Pressure Humidity
    00:00 +10°C° 0 mm 1 mps 739 mmHg 86%
    01:00 +9°C° 0 mm 1 mps 739 mmHg 88%
    02:00 +9°C° 0 mm 1 mps 739 mmHg 89%
    03:00 +9°C° 0 mm 1 mps 738 mmHg 91%
    04:00 +8°C° 0 mm 1 mps 738 mmHg 92%
    05:00 +8°C° 0 mm 1 mps 737 mmHg 93%
    06:00 +8°C° 0 mm 1 mps 737 mmHg 93%
    07:00 +10°C° 0 mm 1 mps 737 mmHg 85%
    08:00 +12°C° 0 mm 1 mps 737 mmHg 76%
    09:00 +14°C° 0 mm 1 mps 736 mmHg 68%
    10:00 +16°C° 0 mm 2 mps 736 mmHg 60%
    11:00 +19°C° 0 mm 2 mps 736 mmHg 53%
    12:00 +21°C° 0 mm 2 mps 735 mmHg 45%
    13:00 +21°C° 0 mm 2 mps 735 mmHg 44%
    14:00 +22°C° 0 mm 3 mps 734 mmHg 44%
    15:00 +22°C° 0 mm 3 mps 734 mmHg 43%
    16:00 +20°C° 0 mm 3 mps 733 mmHg 51%
    17:00 +18°C° 0 mm 2 mps 733 mmHg 60%
    18:00 +17°C° 0 mm 2 mps 733 mmHg 69%
    19:00 +15°C° 0 mm 2 mps 734 mmHg 74%
    20:00 +14°C° 0 mm 1 mps 734 mmHg 80%
    21:00 +12°C° 0 mm 1 mps 735 mmHg 86%
    22:00 +12°C° 0 mm 1 mps 735 mmHg 88%
    23:00 +11°C° 0 mm 1 mps 735 mmHg 90%

    Day after tomorrow, 24 September, Tuesday

    Time Temperature Precipitation Wind Pressure Humidity
    00:00 +11°C° 0 mm 1 mps 735 mmHg 91%
    01:00 +11°C° 0 mm 1 mps 735 mmHg 92%
    02:00 +11°C° 0 mm 1 mps 735 mmHg 92%
    03:00 +10°C° 0 mm 1 mps 736 mmHg 93%
    04:00 +10°C° 0 mm 1 mps 736 mmHg 93%
    05:00 +10°C° 0 mm 1 mps 737 mmHg 93%
    06:00 +10°C° 0 mm 1 mps 737 mmHg 93%
    07:00 +12°C° 0 mm 1 mps 737 mmHg 82%
    08:00 +14°C° 0 mm 2 mps 738 mmHg 71%
    09:00 +16°C° 0 mm 2 mps 738 mmHg 60%
    10:00 +17°C° 0 mm 2 mps 739 mmHg 53%
    11:00 +18°C° 0 mm 3 mps 739 mmHg 47%
    12:00 +19°C° 0 mm 3 mps 739 mmHg 40%
    13:00 +19°C° 0 mm 3 mps 738 mmHg 39%
    14:00 +20°C° 0 mm 3 mps 738 mmHg 37%
    15:00 +20°C° 0 mm 3 mps 738 mmHg 36%
    16:00 +18°C° 0 mm 3 mps 738 mmHg 44%
    17:00 +16°C° 0 mm 2 mps 738 mmHg 53%
    18:00 +14°C° 0 mm 1 mps 739 mmHg 61%
    19:00 +13°C° 0 mm 1 mps 739 mmHg 65%
    20:00 +12°C° 0 mm 1 mps 739 mmHg 70%
    21:00 +10°C° 0 mm 1 mps 740 mmHg 74%
    22:00 +9°C° 0 mm 0 mps 740 mmHg 77%
    23:00 +8°C° 0 mm 0 mps 740 mmHg 80%

    25 September, Wednesday

    Time Temperature Precipitation Wind Pressure Humidity
    00:00 +7°C° 0 mm 0 mps 740 mmHg 83%
    01:00 +7°C° 0 mm 0 mps 740 mmHg 85%
    02:00 +7°C° 0 mm 0 mps 740 mmHg 86%
    03:00 +7°C° 0 mm 0 mps 740 mmHg 88%
    04:00 +6°C° 0 mm 0 mps 740 mmHg 88%
    05:00 +6°C° 0 mm 0 mps 740 mmHg 88%
    06:00 +6°C° 0 mm 0 mps 740 mmHg 88%
    07:00 +9°C° 0 mm 0 mps 740 mmHg 77%
    08:00 +12°C° 0 mm 1 mps 740 mmHg 67%
    09:00 +15°C° 0 mm 1 mps 740 mmHg 57%
    10:00 +18°C° 0 mm 1 mps 740 mmHg 51%
    11:00 +20°C° 0 mm 2 mps 739 mmHg 45%
    12:00 +23°C° 0 mm 2 mps 739 mmHg 39%
    13:00 +24°C° 0 mm 3 mps 738 mmHg 39%
    14:00 +25°C° 0 mm 3 mps 738 mmHg 38%
    15:00 +26°C° 0 mm 3 mps 737 mmHg 38%
    16:00 +24°C° 0 mm 2 mps 737 mmHg 47%
    17:00 +21°C° 0 mm 2 mps 738 mmHg 55%
    18:00 +20°C° 0 mm 1 mps 738 mmHg 64%
    19:00 +19°C° 0 mm 1 mps 738 mmHg 67%
    20:00 +16°C° 0 mm 1 mps 739 mmHg 70%
    21:00 +14°C° 0 mm 0 mps 739 mmHg 73%
    22:00 +14°C° 0 mm 0 mps 739 mmHg 76%
    23:00 +13°C° 0 mm 0 mps 739 mmHg 79%

    26 September, Thursday

    Time Temperature Precipitation Wind Pressure Humidity
    00:00 +12°C° 0 mm 0 mps 739 mmHg 81%
    01:00 +12°C° 0 mm 0 mps 739 mmHg 82%
    02:00 +12°C° 0 mm 0 mps 740 mmHg 83%
    03:00 +11°C° 0 mm 0 mps 740 mmHg 84%
    04:00 +11°C° 0 mm 0 mps 740 mmHg 85%
    05:00 +11°C° 0 mm 0 mps 740 mmHg 86%
    06:00 +11°C° 0 mm 0 mps 741 mmHg 86%
    07:00 +13°C° 0 mm 0 mps 741 mmHg 78%
    08:00 +16°C° 0 mm 0 mps 742 mmHg 69%
    09:00 +19°C° 0 mm 0 mps 742 mmHg 61%
    10:00 +21°C° 0 mm 0 mps 742 mmHg 56%
    11:00 +23°C° 0 mm 0 mps 742 mmHg 51%
    12:00 +27°C° 0 mm 1 mps 742 mmHg 45%
    13:00 +27°C° 0 mm 1 mps 742 mmHg 45%
    14:00 +27°C° 0 mm 1 mps 741 mmHg 44%
    15:00 +28°C° 0 mm 1 mps 741 mmHg 43%
    16:00 +25°C° 0 mm 1 mps 741 mmHg 51%
    17:00 +23°C° 0 mm 1 mps 741 mmHg 59%
    18:00 +21°C° 0 mm 1 mps 741 mmHg 67%
    19:00 +20°C° 0 mm 1 mps 742 mmHg 70%
    20:00 +17°C° 0 mm 0 mps 742 mmHg 73%
    21:00 +16°C° 0 mm 0 mps 742 mmHg 76%
    22:00 +15°C° 0 mm 0 mps 742 mmHg 79%
    23:00 +14°C° 0 mm 0 mps 742 mmHg 82%

    27 September, Friday

    Time Temperature Precipitation Wind Pressure Humidity
    00:00 +14°C° 0 mm 0 mps 742 mmHg 85%
    01:00 +13°C° 0 mm 0 mps 742 mmHg 86%
    02:00 +13°C° 0 mm 0 mps 742 mmHg 88%
    03:00 +13°C° 0 mm 0 mps 741 mmHg 89%
    04:00 +12°C° 0 mm 0 mps 741 mmHg 88%
    05:00 +12°C° 0 mm 0 mps 741 mmHg 88%
    06:00 +12°C° 0 mm 0 mps 742 mmHg 88%
    07:00 +14°C° 0 mm 0 mps 742 mmHg 80%
    08:00 +16°C° 0 mm 0 mps 742 mmHg 73%
    09:00 +20°C° 0 mm 1 mps 742 mmHg 66%
    10:00 +22°C° 0 mm 1 mps 742 mmHg 60%
    11:00 +23°C° 0 mm 1 mps 741 mmHg 55%
    12:00 +24°C° 0 mm 2 mps 741 mmHg 50%
    13:00 +24°C° 0 mm 2 mps 741 mmHg 51%
    14:00 +25°C° 0 mm 2 mps 740 mmHg 53%
    15:00 +25°C° 0 mm 2 mps 740 mmHg 54%
    16:00 +23°C° 0 mm 2 mps 740 mmHg 62%
    17:00 +21°C° 0 mm 1 mps 740 mmHg 71%
    18:00 +20°C° 0 mm 1 mps 740 mmHg 79%
    19:00 +18°C° 0 mm 1 mps 740 mmHg 84%
    20:00 +16°C° 0 mm 1 mps 740 mmHg 88%
    21:00 +15°C° 0 mm 1 mps 740 mmHg 93%
    22:00 +15°C° 0 mm 1 mps 740 mmHg 94%
    23:00 +14°C° 0 mm 1 mps 739 mmHg 95%
    Show more